Time,TemperatureF,DewpointF,PressureIn,WindDirection,WindDirectionDegrees,WindSpeedMPH,WindSpeedGustMPH,Humidity,HourlyPrecipIn,Conditions,Clouds,dailyrainin,SoftwareType,DateUTC
2013-09-09 00:05:00,70.9,69.0,29.98,NNE,27,0.0,0.0,94,0.00,,,0.00,weatherlink.com 1.10,2013-09-09 04:05:00,
2013-09-09 00:20:00,70.6,69.0,29.98,NNE,27,0.0,0.0,94,0.00,,,0.00,weatherlink.com 1.10,2013-09-09 04:20:00,
2013-09-09 00:35:00,70.5,69.0,29.99,NNE,27,0.0,0.0,94,0.00,,,0.00,weatherlink.com 1.10,2013-09-09 04:35:00,
2013-09-09 00:50:00,70.4,69.0,29.99,NNE,27,0.0,0.0,94,0.00,,,0.00,weatherlink.com 1.10,2013-09-09 04:50:00,
2013-09-09 01:05:00,69.9,68.0,30.00,NNE,27,0.0,0.0,94,0.00,,,0.00,weatherlink.com 1.10,2013-09-09 05:05:00,
2013-09-09 01:20:00,70.1,69.0,30.00,NNE,27,0.0,0.0,95,0.00,,,0.00,weatherlink.com 1.10,2013-09-09 05:20:00,
2013-09-09 01:35:00,69.7,68.0,30.00,NNE,27,0.0,0.0,95,0.00,,,0.00,weatherlink.com 1.10,2013-09-09 05:35:00,
2013-09-09 01:50:00,69.6,68.0,30.00,NNE,27,0.0,0.0,95,0.00,,,0.00,weatherlink.com 1.10,2013-09-09 05:50:00,
2013-09-09 02:05:00,70.2,69.0,30.00,NNE,27,0.0,0.0,95,0.00,,,0.00,weatherlink.com 1.10,2013-09-09 06:05:00,
2013-09-09 02:20:00,69.7,68.0,30.00,NNE,27,0.0,0.0,95,0.00,,,0.00,weatherlink.com 1.10,2013-09-09 06:20:00,
2013-09-09 02:35:00,69.6,68.0,30.00,NNE,27,0.0,0.0,95,0.00,,,0.00,weatherlink.com 1.10,2013-09-09 06:35:00,
2013-09-09 02:50:00,69.3,68.0,30.00,NNE,27,0.0,0.0,95,0.00,,,0.00,weatherlink.com 1.10,2013-09-09 06:50:00,
2013-09-09 03:05:00,69.2,68.0,30.00,NNE,27,0.0,0.0,95,0.00,,,0.00,weatherlink.com 1.10,2013-09-09 07:05:00,
2013-09-09 03:20:00,68.9,68.0,30.00,NNE,27,0.0,0.0,95,0.00,,,0.00,weatherlink.com 1.10,2013-09-09 07:20:00,
2013-09-09 03:35:00,68.7,67.0,30.00,NNE,27,0.0,0.0,95,0.00,,,0.00,weatherlink.com 1.10,2013-09-09 07:35:00,
2013-09-09 03:50:00,68.7,67.0,30.00,NNE,27,0.0,0.0,95,0.00,,,0.00,weatherlink.com 1.10,2013-09-09 07:50:00,
2013-09-09 04:05:00,68.6,67.0,30.00,NNE,27,0.0,0.0,95,0.00,,,0.00,weatherlink.com 1.10,2013-09-09 08:05:00,
2013-09-09 04:20:00,68.6,67.0,30.00,NNE,27,0.0,0.0,95,0.00,,,0.00,weatherlink.com 1.10,2013-09-09 08:20:00,
2013-09-09 04:35:00,68.5,67.0,30.00,NNE,27,0.0,0.0,95,0.00,,,0.00,weatherlink.com 1.10,2013-09-09 08:35:00,
2013-09-09 04:50:00,68.2,67.0,30.00,NNE,27,0.0,0.0,95,0.00,,,0.00,weatherlink.com 1.10,2013-09-09 08:50:00,
2013-09-09 05:05:00,68.1,67.0,30.00,NNE,27,0.0,0.0,95,0.00,,,0.00,weatherlink.com 1.10,2013-09-09 09:05:00,
2013-09-09 05:20:00,67.8,66.0,30.01,NNE,27,0.0,0.0,95,0.00,,,0.00,weatherlink.com 1.10,2013-09-09 09:20:00,
2013-09-09 05:35:00,67.4,66.0,30.01,NNE,27,0.0,0.0,95,0.00,,,0.00,weatherlink.com 1.10,2013-09-09 09:35:00,
2013-09-09 05:50:00,67.4,66.0,30.02,NNE,27,0.0,0.0,95,0.00,,,0.00,weatherlink.com 1.10,2013-09-09 09:50:00,
2013-09-09 06:05:00,67.3,66.0,30.01,NNE,27,0.0,0.0,95,0.00,,,0.00,weatherlink.com 1.10,2013-09-09 10:05:00,
2013-09-09 06:20:00,67.2,66.0,30.02,NNE,27,0.0,0.0,95,0.00,,,0.00,weatherlink.com 1.10,2013-09-09 10:20:00,
2013-09-09 06:35:00,67.1,66.0,30.02,NNE,27,0.0,0.0,95,0.00,,,0.00,weatherlink.com 1.10,2013-09-09 10:35:00,
2013-09-09 06:50:00,67.1,66.0,30.02,NNE,27,0.0,0.0,95,0.00,,,0.00,weatherlink.com 1.10,2013-09-09 10:50:00,
2013-09-09 07:05:00,67.0,66.0,30.03,NNE,27,0.0,0.0,95,0.00,,,0.00,weatherlink.com 1.10,2013-09-09 11:05:00,
2013-09-09 07:20:00,66.9,66.0,30.03,NNE,27,0.0,0.0,95,0.00,,,0.00,weatherlink.com 1.10,2013-09-09 11:20:00,
2013-09-09 07:35:00,66.9,66.0,30.03,NNE,27,0.0,0.0,95,0.00,,,0.00,weatherlink.com 1.10,2013-09-09 11:35:00,
2013-09-09 07:50:00,67.0,66.0,30.03,NNE,27,0.0,0.0,95,0.00,,,0.00,weatherlink.com 1.10,2013-09-09 11:50:00,
2013-09-09 08:06:00,67.1,66.0,30.04,NNE,27,0.0,0.0,95,0.00,,,0.00,weatherlink.com 1.10,2013-09-09 12:06:00,
2013-09-09 08:21:00,67.6,66.0,30.04,NNE,27,0.0,0.0,95,0.00,,,0.00,weatherlink.com 1.10,2013-09-09 12:21:00,
2013-09-09 08:36:00,68.2,67.0,30.04,NNE,27,0.0,0.0,95,0.00,,,0.00,weatherlink.com 1.10,2013-09-09 12:36:00,
2013-09-09 08:51:00,68.9,68.0,30.05,NNE,27,0.0,0.0,95,0.00,,,0.00,weatherlink.com 1.10,2013-09-09 12:51:00,
2013-09-09 09:06:00,69.6,68.0,30.05,NNE,27,0.0,0.0,95,0.00,,,0.00,weatherlink.com 1.10,2013-09-09 13:06:00,
2013-09-09 09:21:00,70.5,69.0,30.05,NNE,27,0.0,0.0,94,0.00,,,0.00,weatherlink.com 1.10,2013-09-09 13:21:00,
2013-09-09 09:36:00,71.3,70.0,30.05,NNE,27,0.0,1.0,94,0.00,,,0.00,weatherlink.com 1.10,2013-09-09 13:36:00,
2013-09-09 09:51:00,72.4,70.0,30.06,NNE,27,0.0,0.0,93,0.00,,,0.00,weatherlink.com 1.10,2013-09-09 13:51:00,
2013-09-09 10:06:00,73.5,71.0,30.06,NNE,29,0.0,0.0,92,0.00,,,0.00,weatherlink.com 1.10,2013-09-09 14:06:00,
2013-09-09 10:21:00,74.3,72.0,30.07,ENE,68,0.0,1.0,91,0.00,,,0.00,weatherlink.com 1.10,2013-09-09 14:21:00,
2013-09-09 10:36:00,75.0,72.0,30.07,ENE,68,0.0,0.0,89,0.00,,,0.00,weatherlink.com 1.10,2013-09-09 14:36:00,
2013-09-09 10:51:00,76.1,73.0,30.07,ENE,65,0.0,0.0,89,0.00,,,0.00,weatherlink.com 1.10,2013-09-09 14:51:00,
2013-09-09 11:06:00,77.1,73.0,30.07,SW,229,0.0,1.0,86,0.00,,,0.00,weatherlink.com 1.10,2013-09-09 15:06:00,
2013-09-09 11:21:00,78.2,73.0,30.07,NE,37,0.0,1.0,84,0.00,,,0.00,weatherlink.com 1.10,2013-09-09 15:21:00,
2013-09-09 11:36:00,80.3,73.0,30.07,NE,42,0.0,1.0,79,0.00,,,0.00,weatherlink.com 1.10,2013-09-09 15:36:00,
2013-09-09 11:51:00,81.6,74.0,30.08,East,84,0.0,1.0,78,0.00,,,0.00,weatherlink.com 1.10,2013-09-09 15:51:00,
2013-09-09 12:06:00,83.0,74.0,30.08,ENE,61,0.0,2.0,73,0.00,,,0.00,weatherlink.com 1.10,2013-09-09 16:06:00,
2013-09-09 12:21:00,83.4,73.0,30.08,SSW,205,0.0,2.0,71,0.00,,,0.00,weatherlink.com 1.10,2013-09-09 16:21:00,
2013-09-09 12:36:00,83.6,72.0,30.07,WSW,243,0.0,1.0,67,0.00,,,0.00,weatherlink.com 1.10,2013-09-09 16:36:00,
2013-09-09 12:51:00,85.2,73.0,30.07,NE,49,0.0,2.0,66,0.00,,,0.00,weatherlink.com 1.10,2013-09-09 16:51:00,
2013-09-09 13:06:00,88.0,71.0,30.07,WNW,288,0.0,3.0,58,0.00,,,0.00,weatherlink.com 1.10,2013-09-09 17:06:00,
2013-09-09 13:22:00,86.2,74.0,30.07,NNE,19,0.0,3.0,66,0.00,,,0.00,weatherlink.com 1.10,2013-09-09 17:22:00,
2013-09-09 13:37:00,86.4,71.0,30.07,NNE,18,0.0,2.0,60,0.00,,,0.00,weatherlink.com 1.10,2013-09-09 17:37:00,
2013-09-09 13:52:00,88.6,71.0,30.07,WSW,245,2.0,5.0,56,0.00,,,0.00,weatherlink.com 1.10,2013-09-09 17:52:00,
2013-09-09 14:07:00,87.6,69.0,30.06,WSW,246,0.0,3.0,55,0.00,,,0.00,weatherlink.com 1.10,2013-09-09 18:07:00,
2013-09-09 14:22:00,86.3,74.0,30.06,NE,51,0.0,1.0,66,0.00,,,0.00,weatherlink.com 1.10,2013-09-09 18:22:00,
2013-09-09 14:37:00,86.8,72.0,30.05,NNE,25,0.0,3.0,62,0.00,,,0.00,weatherlink.com 1.10,2013-09-09 18:37:00,
2013-09-09 14:52:00,83.8,71.0,30.05,NNE,26,0.0,1.0,66,0.00,,,0.00,weatherlink.com 1.10,2013-09-09 18:52:00,
2013-09-09 15:07:00,81.8,72.0,30.05,ENE,62,0.0,0.0,72,0.00,,,0.00,weatherlink.com 1.10,2013-09-09 19:07:00,
2013-09-09 15:22:00,84.9,72.0,30.04,ENE,58,0.0,2.0,66,0.00,,,0.00,weatherlink.com 1.10,2013-09-09 19:22:00,
2013-09-09 15:37:00,84.7,72.0,30.04,West,263,0.0,1.0,66,0.00,,,0.00,weatherlink.com 1.10,2013-09-09 19:37:00,
2013-09-09 15:52:00,83.8,72.0,30.04,NE,36,0.0,1.0,67,0.00,,,0.00,weatherlink.com 1.10,2013-09-09 19:52:00,
2013-09-09 16:07:00,84.8,74.0,30.04,ENE,69,0.0,1.0,71,0.00,,,0.00,weatherlink.com 1.10,2013-09-09 20:07:00,
2013-09-09 16:22:00,85.2,73.0,30.04,NE,53,0.0,1.0,67,0.00,,,0.00,weatherlink.com 1.10,2013-09-09 20:22:00,
2013-09-09 16:37:00,82.4,73.0,30.04,NE,53,0.0,1.0,72,0.00,,,0.00,weatherlink.com 1.10,2013-09-09 20:37:00,
2013-09-09 16:52:00,81.1,72.0,30.04,NE,54,0.0,0.0,74,0.00,,,0.00,weatherlink.com 1.10,2013-09-09 20:52:00,
2013-09-09 17:07:00,81.7,72.0,30.03,NE,54,0.0,0.0,73,0.00,,,0.00,weatherlink.com 1.10,2013-09-09 21:07:00,
2013-09-09 17:22:00,84.8,72.0,30.03,NE,51,1.0,1.0,65,0.00,,,0.00,weatherlink.com 1.10,2013-09-09 21:22:00,
2013-09-09 17:37:00,85.4,72.0,30.03,NE,41,0.0,2.0,64,0.00,,,0.00,weatherlink.com 1.10,2013-09-09 21:37:00,
2013-09-09 17:52:00,85.9,71.0,30.02,SE,129,0.0,1.0,62,0.00,,,0.00,weatherlink.com 1.10,2013-09-09 21:52:00,
2013-09-09 18:07:00,85.5,72.0,30.03,ENE,63,0.0,1.0,65,0.00,,,0.00,weatherlink.com 1.10,2013-09-09 22:07:00,
2013-09-09 18:22:00,83.4,72.0,30.03,ENE,58,0.0,0.0,68,0.00,,,0.00,weatherlink.com 1.10,2013-09-09 22:22:00,
2013-09-09 18:37:00,82.3,71.0,30.03,ENE,58,0.0,0.0,69,0.00,,,0.00,weatherlink.com 1.10,2013-09-09 22:37:00,
2013-09-09 18:52:00,80.9,71.0,30.03,ENE,58,0.0,0.0,71,0.00,,,0.00,weatherlink.com 1.10,2013-09-09 22:52:00,
2013-09-09 19:07:00,79.8,70.0,30.04,ENE,58,0.0,0.0,73,0.00,,,0.00,weatherlink.com 1.10,2013-09-09 23:07:00,
2013-09-09 19:22:00,79.1,70.0,30.04,ENE,58,0.0,0.0,74,0.00,,,0.00,weatherlink.com 1.10,2013-09-09 23:22:00,
2013-09-09 19:37:00,78.5,70.0,30.04,ENE,58,0.0,0.0,75,0.00,,,0.00,weatherlink.com 1.10,2013-09-09 23:37:00,
2013-09-09 19:52:00,77.7,70.0,30.05,ENE,58,0.0,0.0,76,0.00,,,0.00,weatherlink.com 1.10,2013-09-09 23:52:00,
2013-09-09 20:07:00,76.9,70.0,30.05,ENE,58,0.0,0.0,78,0.00,,,0.00,weatherlink.com 1.10,2013-09-10 00:07:00,
2013-09-09 20:22:00,76.2,70.0,30.05,ENE,58,0.0,0.0,80,0.00,,,0.00,weatherlink.com 1.10,2013-09-10 00:22:00,
2013-09-09 20:37:00,75.7,69.0,30.05,ENE,58,0.0,0.0,80,0.00,,,0.00,weatherlink.com 1.10,2013-09-10 00:37:00,
2013-09-09 20:52:00,75.1,69.0,30.05,ENE,58,0.0,0.0,81,0.00,,,0.00,weatherlink.com 1.10,2013-09-10 00:52:00,
2013-09-09 21:07:00,74.6,69.0,30.06,ENE,58,0.0,0.0,82,0.00,,,0.00,weatherlink.com 1.10,2013-09-10 01:07:00,
2013-09-09 21:22:00,74.3,69.0,30.07,ENE,58,0.0,0.0,83,0.00,,,0.00,weatherlink.com 1.10,2013-09-10 01:22:00,
2013-09-09 21:37:00,73.8,69.0,30.07,ENE,58,0.0,0.0,84,0.00,,,0.00,weatherlink.com 1.10,2013-09-10 01:37:00,
2013-09-09 21:52:00,73.3,69.0,30.08,ENE,58,0.0,0.0,85,0.00,,,0.00,weatherlink.com 1.10,2013-09-10 01:52:00,
2013-09-09 22:07:00,72.9,69.0,30.09,ENE,58,0.0,0.0,86,0.00,,,0.00,weatherlink.com 1.10,2013-09-10 02:07:00,
2013-09-09 22:22:00,72.6,69.0,30.09,ENE,58,0.0,0.0,87,0.00,,,0.00,weatherlink.com 1.10,2013-09-10 02:22:00,
2013-09-09 22:37:00,72.2,69.0,30.09,ENE,58,0.0,0.0,88,0.00,,,0.00,weatherlink.com 1.10,2013-09-10 02:37:00,
2013-09-09 22:52:00,71.8,69.0,30.10,ENE,58,0.0,0.0,89,0.00,,,0.00,weatherlink.com 1.10,2013-09-10 02:52:00,
2013-09-09 23:07:00,71.4,68.0,30.10,ENE,58,0.0,0.0,90,0.00,,,0.00,weatherlink.com 1.10,2013-09-10 03:07:00,
2013-09-09 23:22:00,71.2,69.0,30.10,ENE,58,0.0,0.0,91,0.00,,,0.00,weatherlink.com 1.10,2013-09-10 03:22:00,
2013-09-09 23:37:00,70.9,68.0,30.10,ENE,58,0.0,0.0,91,0.00,,,0.00,weatherlink.com 1.10,2013-09-10 03:37:00,
2013-09-09 23:52:00,70.4,68.0,30.11,ENE,58,0.0,0.0,92,0.00,,,0.00,weatherlink.com 1.10,2013-09-10 03:52:00,